Zurück zum Katalog

IRIDIUM 33 DEB

AktivPO
NORAD 38241·DEBRIS·🇺🇸 United States

Gestartet Sep 14, 1997 von Baikonur Cosmodrome

Loading…

Nächste Überflüge (nächste 24 Stunden)

TLE

AktuellSource: Space-Track

Epoche: Sep 14, 2026, 04:59 UTC

1 38241U 97051ZR  26257.20808037  .00001843  00000-0  41113-3 0  9999
2 38241  86.3205 228.8731 0002910 147.1755 212.9634 14.56360035642087

Verfolge IRIDIUM 33 DEB in Echtzeit mit AllMySat

Download on the App Store